Home > Weather > Eisenach > Past weeks

Flag for Germany Past Weather in Eisenach, Thuringia, Germany — Yesterday and Last 2 Weeks

Now
73 °F

Partly sunny.


Feels Like: 76 °F
Forecast: 59 / 81 °F
Wind: 2 mph from North

Location: Erfurt-Bindersleben

Current Time: Jul 24, 2016 at 10:56:04 AM

Latest Report: Jul 24, 2016 at 10:20 AM


Visibility: N/A

Pressure: 30.12 "Hg

Humidity: 69%

Dew Point: 63 °F

Location of EisenachLocation

Past Weather in Eisenach — Graph

°F

Eisenach Temperature Yesterday

Maximum temperature yesterday: 75 °F (at 1:50 PM)
Minimum temperature yesterday: 61 °F (at 5:50 AM)
Average temperature yesterday: 67 °F

High & Low Weather Summary for the Past Weeks

 TemperatureHumidityPressure
High88 °F (Jul 20, 2:50 PM)100% (Jul 14, 7:50 AM)30.30 "Hg (Jul 14, 7:50 AM)
Low46 °F (Jul 16, 4:50 AM)27% (Jul 20, 2:50 PM)29.80 "Hg (Jul 11, 3:50 AM)
Average67 °F69%30.06 "Hg
* Reported Jul 9 9:20 AM — Jul 24 9:20 AM, Eisenach, Weather by CustomWeather, © 2016

Note: Actual official high and low records may vary slightly from our data, if they occured in-between our weather recording intervals... More about our weather records

Advertising

Eisenach Weather History for the Previous 24 Hours

Scroll right to see more
 ConditionsComfort  
Time TempWeatherWind HumidityBarometerVisibility
9:20 AM
Sun, Jul 24
72 °FSunny.2 mph73%30.09 "Hg10 mi
8:50 AM72 °FPassing clouds.3 mph73%30.09 "HgN/A
8:20 AM72 °FSunny.1 mph69%30.09 "Hg10 mi
7:50 AM68 °FBroken clouds.3 mph78%30.09 "HgN/A
7:20 AM66 °FSunny.1 mph88%30.09 "Hg10 mi
6:50 AM63 °FSunny.3 mph100%30.09 "Hg10 mi
6:20 AM63 °FFog.3 mph100%30.09 "HgN/A
5:50 AM63 °FRain. Fog.6 mph100%30.09 "HgN/A
5:20 AM63 °FRain. Fog.6 mph100%30.09 "HgN/A
4:50 AM63 °FClear.3 mph100%30.09 "Hg10 mi
4:20 AM63 °FClear.6 mph100%30.09 "Hg10 mi
3:50 AM63 °FPassing clouds.6 mph100%30.09 "HgN/A
3:20 AM63 °FClear.5 mph100%30.09 "Hg10 mi
2:50 AM63 °FClear.5 mph100%30.09 "Hg10 mi
2:20 AM64 °FClear.5 mph94%30.09 "Hg10 mi
1:50 AM64 °FClear.3 mph94%30.09 "Hg10 mi
1:20 AM64 °FClear.5 mph94%30.09 "Hg10 mi
12:50 AM64 °FClear.7 mph100%30.09 "Hg10 mi
12:20 AM66 °FClear.6 mph94%30.09 "Hg10 mi
11:50 PM
Sat, Jul 23
66 °FClear.6 mph94%30.09 "Hg10 mi
11:20 PM66 °FClear.5 mph94%30.09 "Hg10 mi
10:50 PM66 °FClear.5 mph94%30.09 "Hg10 mi
10:20 PM66 °FClear.5 mph94%30.09 "Hg10 mi
9:50 PM66 °FSunny.6 mph94%30.09 "Hg10 mi
9:20 PM66 °FSunny.6 mph94%30.07 "Hg10 mi
8:50 PM66 °FSunny.6 mph94%30.07 "Hg10 mi
8:20 PM66 °FSunny.5 mph94%30.07 "Hg10 mi
7:50 PM68 °FSunny.6 mph88%30.07 "Hg10 mi
7:20 PM68 °FBroken clouds.7 mph88%30.07 "HgN/A
6:50 PM66 °FBroken clouds.9 mph94%30.07 "HgN/A
6:20 PM68 °FBroken clouds.6 mph88%30.07 "HgN/A
5:50 PM66 °FBroken clouds.8 mph94%30.09 "HgN/A
5:20 PM66 °FBroken clouds.8 mph94%30.09 "HgN/A
4:50 PM66 °FBroken clouds.10 mph94%30.09 "HgN/A
4:20 PM66 °FLight rain. Broken clouds.10 mph94%30.09 "HgN/A
3:50 PM66 °FLight rain. Partly sunny.9 mph88%30.09 "HgN/A
3:20 PM64 °FLight rain. Broken clouds.13 mph94%30.09 "HgN/A
2:50 PM68 °FLight rain. Clear.13 mph83%30.09 "HgN/A
2:20 PM73 °FPartly sunny.7 mph57%30.09 "HgN/A
1:50 PM75 °FPartly sunny.7 mph54%30.07 "HgN/A
1:20 PM73 °FPassing clouds.6 mph57%30.07 "HgN/A
12:50 PM73 °FPassing clouds.7 mph53%30.07 "HgN/A
12:20 PM72 °FSunny.6 mph57%30.09 "Hg10 mi
11:50 AM72 °FPassing clouds.5 mph57%30.07 "HgN/A
11:20 AM70 °FPassing clouds.5 mph60%30.09 "HgN/A
10:50 AM70 °FPassing clouds.6 mph57%30.07 "HgN/A
10:20 AM70 °FPassing clouds.5 mph60%30.07 "HgN/A
Weather by CustomWeather, © 2016

See weather overviewHow to use our weather pages